FW4143 Weather Reports


Display with metric or nautical units.
time (UTC)temp
F
wind
direction
speed
MPH
gust
MPH
rain 1hr
in
rain 24hr
in
rain mn
in
humidity
%
barometer
mb
20260502221503 74 226 0.0 2.0 0.00 0.04 0.00 44 1020.1
20260502221403 74 229 0.0 2.0 0.00 0.04 0.00 44 1020.0
20260502221303 74 227 0.0 2.0 0.00 0.04 0.00 43 1020.1
20260502221203 74 220 0.0 5.0 0.00 0.04 0.00 44 1020.1
20260502221103 74 227 0.0 5.0 0.00 0.04 0.00 43 1020.0
20260502221004 74 227 0.0 5.0 0.00 0.04 0.00 43 1020.0
20260502220904 74 227 0.0 5.0 0.00 0.04 0.00 44 1020.0
20260502220803 74 227 0.0 5.0 0.00 0.05 0.00 44 1020.0
20260502220704 74 229 0.0 5.0 0.00 0.05 0.00 43 1020.0
20260502220624 74 229 0.0 5.0 0.00 0.05 0.00 43 1020.1
20260502220503 74 229 0.0 5.0 0.00 0.05 0.00 42 1020.1
20260502220403 74 240 0.0 5.0 0.00 0.05 0.00 45 1020.0
20260502220303 74 240 0.0 5.0 0.00 0.06 0.00 45 1020.1
20260502220203 74 256 0.0 5.0 0.00 0.06 0.00 44 1020.0
20260502220103 74 245 0.0 3.0 0.00 0.06 0.00 44 1020.0
20260502220003 74 245 0.0 3.0 0.00 0.07 0.00 44 1020.0
20260502215925 74 245 0.0 3.0 0.00 0.07 0.00 44 1020.0
20260502215803 74 245 0.0 3.0 0.00 0.07 0.00 44 1020.0
20260502215703 74 246 0.0 3.0 0.00 0.07 0.00 44 1020.0
20260502215624 74 246 0.0 3.0 0.00 0.08 0.00 44 1020.0
20260502215503 74 250 0.0 3.0 0.00 0.08 0.00 45 1020.0
20260502215404 74 244 0.0 4.0 0.00 0.08 0.00 46 1020.0
20260502215305 74 245 0.0 4.0 0.00 0.09 0.00 46 1020.1
20260502215203 74 247 0.0 4.0 0.00 0.09 0.00 45 1020.1
20260502215103 74 247 0.0 4.0 0.00 0.09 0.00 46 1020.1
20260502215003 74 247 0.0 4.0 0.00 0.09 0.00 44 1020.1
20260502214903 74 247 0.0 4.0 0.00 0.09 0.00 44 1020.1
20260502214803 74 245 0.0 4.0 0.00 0.10 0.00 43 1020.1
20260502214724 74 245 0.0 4.0 0.00 0.10 0.00 44 1020.2
20260502214603 74 245 0.0 4.0 0.00 0.10 0.00 44 1020.2
20260502214504 74 241 0.0 4.0 0.00 0.10 0.00 45 1020.2
20260502214403 74 238 0.0 3.0 0.00 0.10 0.00 45 1020.2
20260502214324 74 238 0.0 3.0 0.00 0.10 0.00 45 1020.2
20260502214204 74 238 0.0 3.0 0.00 0.10 0.00 45 1020.2
20260502214103 74 238 0.0 3.0 0.00 0.11 0.00 45 1020.2
20260502214003 74 238 0.0 3.0 0.00 0.11 0.00 44 1020.2
20260502213904 74 238 0.0 3.0 0.00 0.11 0.00 46 1020.3
20260502213803 74 0 0.0 1.0 0.00 0.11 0.00 45 1020.2
20260502213724 74 0 0.0 1.0 0.00 0.11 0.00 44 1020.3
20260502213624 74 0 0.0 1.0 0.00 0.12 0.00 45 1020.3
20260502213503 74 0 0.0 1.0 0.00 0.12 0.00 44 1020.3
20260502213424 74 0 0.0 1.0 0.00 0.12 0.00 44 1020.4
20260502213324 74 192 0.0 2.0 0.00 0.12 0.00 45 1020.4
20260502213203 74 197 0.0 2.0 0.00 0.12 0.00 45 1020.3
20260502213103 74 176 0.0 2.0 0.00 0.12 0.00 46 1020.4
20260502213004 74 181 0.0 5.0 0.00 0.12 0.00 46 1020.4
20260502212903 74 181 0.0 5.0 0.00 0.12 0.00 45 1020.4
20260502212803 74 181 0.0 5.0 0.00 0.12 0.00 45 1020.4
20260502212703 74 176 0.0 5.0 0.00 0.12 0.00 45 1020.4
20260502212603 74 177 0.0 5.0 0.00 0.12 0.00 45 1020.4
20260502212503 74 177 0.0 5.0 0.00 0.12 0.00 45 1020.4
20260502212404 74 176 0.0 5.0 0.00 0.12 0.00 46 1020.4
20260502212305 74 172 0.0 5.0 0.00 0.12 0.00 46 1020.4
20260502212203 74 168 0.0 5.0 0.00 0.12 0.00 47 1020.4
20260502212104 74 168 0.0 5.0 0.00 0.12 0.00 46 1020.4
20260502212004 74 187 0.0 6.0 0.00 0.12 0.00 46 1020.4
20260502211903 74 188 1.0 6.0 0.00 0.12 0.00 46 1020.4
20260502211803 74 188 1.0 6.0 0.00 0.12 0.00 46 1020.4
20260502211703 74 190 1.0 6.0 0.00 0.12 0.00 46 1020.4
20260502211603 73 191 1.0 6.0 0.00 0.12 0.00 45 1020.5
20260502211524 74 193 1.0 6.0 0.00 0.12 0.00 46 1020.4
20260502211403 74 194 1.0 10.0 0.00 0.12 0.00 47 1020.5
20260502211303 73 200 1.0 10.0 0.00 0.12 0.00 47 1020.6
20260502211204 73 203 1.0 10.0 0.00 0.12 0.00 46 1020.6
20260502211103 73 198 1.0 10.0 0.00 0.12 0.00 45 1020.6
20260502211003 74 187 1.0 10.0 0.00 0.12 0.00 46 1020.6
20260502210903 74 186 1.0 10.0 0.00 0.12 0.00 46 1020.7
20260502210824 74 183 1.0 10.0 0.00 0.12 0.00 47 1020.7
20260502210703 73 181 1.0 10.0 0.00 0.12 0.00 46 1020.6
20260502210603 73 182 1.0 10.0 0.00 0.12 0.00 47 1020.7
20260502210503 73 180 1.0 10.0 0.00 0.12 0.00 46 1020.6
20260502210403 73 183 1.0 8.0 0.00 0.12 0.00 46 1020.6
20260502210303 73 179 1.0 8.0 0.00 0.12 0.00 47 1020.7
20260502210203 73 179 1.0 8.0 0.00 0.12 0.00 47 1020.7
20260502210003 73 185 1.0 7.0 0.00 0.12 0.00 46 1020.7
20260502205903 73 187 1.0 7.0 0.00 0.12 0.00 46 1020.7
20260502205824 73 194 0.0 7.0 0.00 0.12 0.00 46 1020.8
20260502205724 73 216 0.0 4.0 0.00 0.12 0.00 45 1020.8
20260502205603 73 218 0.0 4.0 0.00 0.12 0.00 45 1020.8
20260502205503 74 218 0.0 4.0 0.00 0.12 0.00 45 1020.9
20260502205404 74 205 0.0 4.0 0.00 0.12 0.00 46 1020.9
20260502205305 74 204 0.0 4.0 0.00 0.12 0.00 45 1020.9
20260502205203 74 204 0.0 4.0 0.00 0.12 0.00 46 1020.9
20260502205103 74 204 0.0 4.0 0.00 0.12 0.00 45 1020.9
20260502205004 74 206 0.0 4.0 0.00 0.12 0.00 46 1020.9
20260502204903 74 208 0.0 4.0 0.00 0.12 0.00 45 1020.9
20260502204824 74 205 0.0 4.0 0.00 0.12 0.00 46 1021.0
20260502204703 74 222 0.0 4.0 0.00 0.12 0.00 47 1021.0
20260502204603 73 216 0.0 3.0 0.00 0.12 0.00 46 1021.0
20260502204503 73 213 0.0 4.0 0.00 0.12 0.00 45 1021.0
20260502204404 73 210 0.0 4.0 0.00 0.12 0.00 44 1021.0
20260502204325 74 203 0.0 4.0 0.00 0.12 0.00 45 1021.0
20260502204203 73 205 0.0 4.0 0.00 0.12 0.00 47 1021.0
20260502204103 73 205 0.0 4.0 0.00 0.12 0.00 45 1021.0
20260502204004 73 204 0.0 4.0 0.00 0.12 0.00 46 1021.0
20260502203903 73 206 0.0 4.0 0.00 0.12 0.00 46 1021.0
20260502203803 73 219 0.0 4.0 0.00 0.12 0.00 45 1021.0
20260502203724 73 219 0.0 4.0 0.00 0.13 0.00 46 1021.0
20260502203603 73 221 0.0 4.0 0.00 0.13 0.00 45 1021.0
20260502203503 73 225 0.0 3.0 0.00 0.13 0.00 45 1021.1
20260502203403 73 231 0.0 3.0 0.00 0.13 0.00 44 1021.0
20260502203303 74 259 0.0 2.0 0.00 0.13 0.00 45 1021.0
20260502203203 74 259 0.0 2.0 0.00 0.13 0.00 44 1021.0
20260502203103 74 259 0.0 2.0 0.00 0.13 0.00 45 1021.0
20260502203004 74 254 0.0 4.0 0.00 0.13 0.00 44 1021.0
20260502202903 74 246 0.0 4.0 0.00 0.13 0.00 45 1021.1
20260502202803 74 231 0.0 10.0 0.00 0.13 0.00 47 1021.1
20260502202704 74 231 0.0 10.0 0.00 0.13 0.00 46 1021.1
20260502202603 74 232 0.0 10.0 0.00 0.13 0.00 46 1021.1
20260502202503 74 233 0.0 10.0 0.00 0.13 0.00 46 1021.0
20260502202403 74 233 0.0 10.0 0.00 0.13 0.00 46 1021.1
20260502202305 73 233 0.0 10.0 0.00 0.13 0.00 46 1021.1
20260502202203 73 226 1.0 10.0 0.00 0.13 0.00 45 1021.1
20260502202103 73 226 1.0 10.0 0.00 0.13 0.00 44 1021.1
20260502202003 73 229 1.0 10.0 0.00 0.13 0.00 44 1021.1
20260502201903 73 230 1.0 10.0 0.00 0.13 0.00 45 1021.2
20260502201803 73 232 0.0 6.0 0.00 0.13 0.00 45 1021.2
20260502201724 73 232 0.0 6.0 0.00 0.13 0.00 44 1021.2
20260502201603 73 229 0.0 6.0 0.00 0.13 0.00 45 1021.1
20260502201503 73 226 0.0 6.0 0.00 0.13 0.00 44 1021.2
20260502201403 73 226 0.0 6.0 0.00 0.13 0.00 45 1021.2
20260502201324 73 226 0.0 6.0 0.00 0.13 0.00 44 1021.2
20260502201203 73 280 0.0 3.0 0.00 0.13 0.00 45 1021.2
20260502201124 73 232 0.0 4.0 0.00 0.13 0.00 45 1021.2
20260502201024 73 230 0.0 4.0 0.00 0.13 0.00 46 1021.2
20260502200903 73 194 0.0 4.0 0.00 0.13 0.00 47 1021.2
20260502200824 73 194 0.0 4.0 0.00 0.13 0.00 48 1021.2
20260502200703 73 210 0.0 4.0 0.00 0.13 0.00 46 1021.2
20260502200624 73 210 0.0 4.0 0.00 0.13 0.00 46 1021.2
20260502200503 73 216 0.0 5.0 0.00 0.13 0.00 46 1021.3
20260502200403 73 216 0.0 5.0 0.00 0.14 0.00 47 1021.3
20260502200303 73 216 0.0 5.0 0.00 0.14 0.00 47 1021.2
20260502200203 73 216 0.0 5.0 0.00 0.14 0.00 46 1021.2
20260502200003 73 225 0.0 5.0 0.00 0.14 0.00 46 1021.3
20260502195903 73 225 0.0 5.0 0.00 0.14 0.00 45 1021.2
20260502195804 73 222 0.0 5.0 0.00 0.14 0.00 45 1021.2
20260502195724 73 222 0.0 5.0 0.00 0.14 0.00 46 1021.2
20260502195624 73 222 0.0 5.0 0.00 0.14 0.00 45 1021.2
20260502195504 73 199 0.0 1.0 0.00 0.14 0.00 49 1021.2
20260502195403 72 200 0.0 2.0 0.00 0.14 0.00 49 1021.2
20260502195305 72 206 0.0 5.0 0.00 0.15 0.00 47 1021.1
20260502195203 72 211 0.0 5.0 0.00 0.15 0.00 48 1021.1
20260502195103 72 210 0.0 5.0 0.00 0.15 0.00 47 1021.2
20260502195004 72 211 0.0 5.0 0.00 0.15 0.00 47 1021.2
20260502194903 72 211 0.0 5.0 0.00 0.15 0.00 48 1021.2
20260502194803 72 211 0.0 5.0 0.00 0.15 0.00 47 1021.2
20260502194703 72 213 1.0 5.0 0.00 0.15 0.00 46 1021.2
20260502194603 72 216 1.0 6.0 0.00 0.15 0.00 46 1021.2
20260502194503 72 217 1.0 6.0 0.00 0.15 0.00 47 1021.2
20260502194403 72 218 1.0 6.0 0.00 0.16 0.00 46 1021.2
20260502194303 72 219 0.0 6.0 0.00 0.16 0.00 47 1021.2
20260502194203 72 218 0.0 6.0 0.00 0.16 0.00 46 1021.3
20260502194124 72 219 0.0 6.0 0.00 0.16 0.00 46 1021.2
20260502194003 72 224 0.0 6.0 0.00 0.16 0.00 46 1021.2
20260502193903 72 225 0.0 6.0 0.00 0.17 0.00 46 1021.3
20260502193803 72 221 0.0 6.0 0.00 0.17 0.00 46 1021.3
20260502193703 72 218 0.0 8.0 0.00 0.17 0.00 48 1021.3
20260502193603 72 215 0.0 8.0 0.00 0.17 0.00 48 1021.3
20260502193503 72 215 0.0 8.0 0.00 0.17 0.00 48 1021.3
20260502193424 72 213 0.0 8.0 0.00 0.18 0.00 48 1021.3
20260502193303 72 215 1.0 8.0 0.00 0.18 0.00 47 1021.3
20260502193203 72 213 1.0 8.0 0.00 0.18 0.00 49 1021.3
20260502193103 72 212 1.0 8.0 0.00 0.18 0.00 47 1021.3
20260502193024 72 211 1.0 8.0 0.00 0.18 0.00 46 1021.4
20260502192903 72 211 0.0 8.0 0.00 0.18 0.00 46 1021.4
20260502192803 72 209 0.0 8.0 0.00 0.18 0.00 46 1021.4
20260502192703 72 204 0.0 8.0 0.00 0.18 0.00 46 1021.4
20260502192603 72 204 0.0 8.0 0.00 0.18 0.00 47 1021.3
20260502192503 72 205 1.0 8.0 0.00 0.18 0.00 46 1021.4
20260502192403 72 211 1.0 10.0 0.00 0.18 0.00 45 1021.4
20260502192305 72 209 1.0 10.0 0.00 0.18 0.00 46 1021.4
20260502192224 72 210 1.0 10.0 0.00 0.18 0.00 47 1021.3
20260502192103 72 212 1.0 10.0 0.00 0.18 0.00 46 1021.4
20260502192003 72 215 1.0 10.0 0.00 0.18 0.00 48 1021.4
20260502191903 72 216 1.0 10.0 0.00 0.18 0.00 47 1021.4
20260502191803 72 216 1.0 10.0 0.00 0.18 0.00 48 1021.4
20260502191703 72 222 1.0 10.0 0.00 0.18 0.00 47 1021.3
20260502191604 72 222 1.0 10.0 0.00 0.18 0.00 46 1021.3
20260502191504 72 221 0.0 10.0 0.00 0.18 0.00 47 1021.3
20260502191403 72 218 0.0 7.0 0.00 0.18 0.00 46 1021.3
20260502191303 72 218 0.0 7.0 0.00 0.18 0.00 48 1021.3
20260502191203 72 218 0.0 7.0 0.00 0.18 0.00 48 1021.3
20260502191103 72 216 0.0 7.0 0.00 0.18 0.00 49 1021.3
20260502191003 72 206 0.0 7.0 0.00 0.18 0.00 48 1021.3
20260502190903 72 207 0.0 7.0 0.00 0.18 0.00 47 1021.4
20260502190803 72 207 0.0 7.0 0.00 0.18 0.00 49 1021.3
20260502190704 72 190 0.0 6.0 0.00 0.18 0.00 48 1021.4
20260502190603 72 212 1.0 9.0 0.00 0.18 0.00 49 1021.3
20260502190503 72 215 1.0 9.0 0.00 0.18 0.00 50 1021.3
20260502190403 72 218 1.0 9.0 0.00 0.18 0.00 49 1021.3
20260502190324 72 218 1.0 9.0 0.00 0.18 0.00 48 1021.3
20260502190203 72 218 1.0 9.0 0.00 0.18 0.00 48 1021.4
20260502190103 72 218 1.0 9.0 0.00 0.18 0.00 49 1021.5
20260502190004 72 218 1.0 9.0 0.00 0.18 0.00 49 1021.5
20260502185903 71 217 1.0 9.0 0.00 0.18 0.00 49 1021.5
20260502185803 71 217 1.0 9.0 0.00 0.18 0.00 49 1021.5
20260502185703 71 217 1.0 9.0 0.00 0.18 0.00 48 1021.5
20260502185603 72 202 0.0 8.0 0.00 0.18 0.00 50 1021.5
20260502185504 72 184 0.0 6.0 0.00 0.18 0.00 50 1021.5
20260502185403 71 182 0.0 7.0 0.00 0.18 0.00 50 1021.5
20260502185305 71 180 1.0 10.0 0.00 0.18 0.00 48 1021.5
20260502185224 71 179 1.0 10.0 0.00 0.18 0.00 48 1021.5
20260502185124 72 179 1.0 10.0 0.00 0.18 0.00 48 1021.5
20260502185003 72 179 1.0 10.0 0.00 0.18 0.00 49 1021.5
20260502184903 71 179 1.0 10.0 0.00 0.18 0.00 49 1021.6
20260502184803 71 179 1.0 10.0 0.00 0.18 0.00 49 1021.5
20260502184703 71 179 1.0 10.0 0.00 0.18 0.00 48 1021.5
20260502184603 71 179 1.0 10.0 0.00 0.18 0.00 48 1021.5
20260502184503 71 179 1.0 10.0 0.00 0.18 0.00 48 1021.6
20260502184403 71 177 0.0 10.0 0.00 0.18 0.00 49 1021.6
20260502184303 71 177 0.0 9.0 0.00 0.18 0.00 51 1021.5
20260502184224 71 217 0.0 2.0 0.00 0.18 0.00 50 1021.5
20260502184103 71 215 0.0 2.0 0.00 0.18 0.00 52 1021.6
20260502184003 71 220 0.0 7.0 0.00 0.18 0.00 52 1021.6
20260502183903 71 202 0.0 7.0 0.00 0.18 0.00 52 1021.6
20260502183803 70 198 0.0 7.0 0.00 0.18 0.00 50 1021.6
20260502183724 71 201 0.0 7.0 0.00 0.19 0.00 50 1021.6
20260502183604 71 196 0.0 7.0 0.00 0.19 0.00 51 1021.6
20260502183503 71 195 0.0 7.0 0.00 0.19 0.00 50 1021.7
20260502183403 71 195 0.0 7.0 0.00 0.19 0.00 50 1021.8
20260502183303 71 194 0.0 7.0 0.00 0.19 0.00 50 1021.8
20260502183224 71 194 0.0 7.0 0.00 0.20 0.00 50 1021.8
20260502183124 71 194 0.0 7.0 0.00 0.20 0.00 51 1021.8
20260502183003 70 193 0.0 11.0 0.00 0.20 0.00 51 1021.8
20260502182903 70 192 0.0 11.0 0.00 0.21 0.00 50 1021.8
20260502182803 70 193 0.0 11.0 0.00 0.21 0.00 51 1021.8
20260502182703 70 197 0.0 11.0 0.00 0.22 0.00 50 1021.8
20260502182624 70 197 0.0 11.0 0.00 0.23 0.00 50 1021.9
20260502182503 70 206 1.0 11.0 0.00 0.23 0.00 51 1021.9
20260502182403 70 192 1.0 11.0 0.00 0.24 0.00 52 1021.9
20260502182304 70 191 1.0 11.0 0.00 0.25 0.00 53 1021.9
20260502182224 70 191 1.0 11.0 0.00 0.26 0.00 53 1022.0
20260502182124 70 191 1.0 11.0 0.00 0.27 0.00 53 1022.0
20260502182003 70 191 1.0 11.0 0.00 0.28 0.00 52 1022.0
20260502181903 70 190 2.0 11.0 0.00 0.29 0.00 53 1022.0
20260502181803 70 189 2.0 11.0 0.00 0.30 0.00 52 1022.0
20260502181703 70 187 1.0 11.0 0.00 0.31 0.00 53 1022.0
20260502181603 70 187 1.0 11.0 0.00 0.32 0.00 52 1022.0
20260502181504 70 180 1.0 11.0 0.00 0.32 0.00 52 1022.1
20260502181403 70 180 0.0 11.0 0.00 0.33 0.00 52 1022.1
20260502181303 70 171 1.0 11.0 0.00 0.33 0.00 51 1022.1
20260502181203 70 174 1.0 11.0 0.00 0.34 0.00 53 1022.1
20260502181103 70 174 1.0 11.0 0.00 0.35 0.00 52 1022.1
20260502181025 70 177 1.0 11.0 0.00 0.35 0.00 51 1022.1
20260502180903 70 175 1.0 10.0 0.00 0.36 0.00 53 1022.1
20260502180824 70 176 1.0 10.0 0.00 0.37 0.00 53 1022.1
20260502180703 70 178 1.0 10.0 0.00 0.38 0.00 53 1022.1
20260502180603 70 178 1.0 10.0 0.00 0.38 0.00 52 1022.2
20260502180503 70 178 1.0 10.0 0.00 0.39 0.00 52 1022.2
20260502180403 70 180 1.0 10.0 0.00 0.39 0.00 52 1022.2
20260502180303 70 192 1.0 12.0 0.00 0.40 0.00 52 1022.2
20260502180203 70 192 1.0 12.0 0.00 0.40 0.00 52 1022.3
20260502170503 68 178 4.0 13.0 0.00 0.49 0.00 52 1023.0
20260502170424 68 176 5.0 11.0 0.00 0.49 0.00 53 1022.9
20260502170303 68 179 5.0 11.0 0.00 0.49 0.00 53 1022.9
20260502170203 68 181 5.0 11.0 0.00 0.49 0.00 53 1022.9
20260502170103 68 179 5.0 11.0 0.00 0.49 0.00 52 1023.0
20260502164303 67 181 6.0 11.0 0.00 0.49 0.00 52 1023.1
20260502164203 67 178 6.0 11.0 0.00 0.49 0.00 53 1023.1
20260502164103 67 178 6.0 11.0 0.00 0.49 0.00 52 1023.1
20260502164003 67 178 6.0 10.0 0.00 0.49 0.00 52 1023.0
20260502163924 67 183 6.0 16.0 0.00 0.49 0.00 53 1023.1
20260502163803 67 188 6.0 16.0 0.00 0.49 0.00 52 1023.1
20260502163703 67 191 6.0 16.0 0.00 0.49 0.00 53 1023.1
20260502163624 67 191 6.0 16.0 0.00 0.49 0.00 53 1023.1
20260502163503 67 191 6.0 16.0 0.00 0.49 0.00 53 1023.0
20260502163403 67 193 6.0 16.0 0.00 0.49 0.00 52 1023.0
20260502163303 67 195 6.0 16.0 0.00 0.49 0.00 52 1023.0
20260502163203 67 199 6.0 16.0 0.00 0.49 0.00 53 1023.1
20260502163124 67 198 6.0 16.0 0.00 0.49 0.00 53 1023.1
20260502163003 67 199 5.0 16.0 0.00 0.49 0.00 52 1023.1
20260502162903 67 190 5.0 10.0 0.00 0.49 0.00 52 1023.1
20260502162803 66 187 5.0 10.0 0.00 0.49 0.00 53 1023.1
20260502162703 66 183 4.0 10.0 0.00 0.49 0.00 52 1023.1
20260502162603 66 183 5.0 10.0 0.00 0.49 0.00 51 1023.1
20260502162524 67 184 5.0 10.0 0.00 0.49 0.00 52 1023.1
20260502162403 67 185 5.0 10.0 0.00 0.49 0.00 52 1023.1
20260502162304 67 184 4.0 10.0 0.00 0.49 0.00 52 1023.1
20260502162203 67 182 4.0 10.0 0.00 0.49 0.00 52 1023.1
20260502162103 67 181 4.0 9.0 0.00 0.49 0.00 53 1023.1
20260502162003 66 182 5.0 11.0 0.00 0.49 0.00 52 1023.1
20260502161903 66 181 5.0 11.0 0.00 0.49 0.00 52 1023.1
20260502161803 66 180 5.0 11.0 0.00 0.49 0.00 53 1023.1
20260502161703 66 179 5.0 11.0 0.00 0.49 0.00 52 1023.1
20260502161603 66 177 4.0 11.0 0.00 0.49 0.00 52 1023.2
20260502161503 66 175 4.0 11.0 0.00 0.49 0.00 53 1023.1
20260502161424 66 172 4.0 11.0 0.00 0.49 0.00 52 1023.1
20260502161303 66 173 4.0 11.0 0.00 0.49 0.00 52 1023.1
20260502161203 66 170 3.0 11.0 0.00 0.49 0.00 52 1023.1
20260502161103 66 174 3.0 11.0 0.00 0.49 0.00 51 1023.1
20260502161003 66 169 3.0 8.0 0.00 0.49 0.00 52 1023.2
20260502160903 66 169 3.0 8.0 0.00 0.49 0.00 52 1023.2
20260502160824 66 172 2.0 8.0 0.00 0.49 0.00 52 1023.2
20260502160703 66 185 3.0 8.0 0.00 0.49 0.00 53 1023.1
20260502160603 66 192 3.0 10.0 0.00 0.49 0.00 52 1023.1
20260502160503 66 191 3.0 10.0 0.00 0.49 0.00 52 1023.1
20260502160403 66 191 3.0 10.0 0.00 0.50 0.00 52 1023.1
20260502160324 66 190 3.0 10.0 0.00 0.50 0.00 52 1023.1
20260502160203 66 195 3.0 10.0 0.00 0.50 0.00 51 1023.1
20260502160124 66 193 3.0 10.0 0.00 0.50 0.00 51 1023.1
20260502152305 64 0 0.0 1.0 0.00 0.52 0.00 51 1023.1
20260502152203 64 152 0.0 4.0 0.00 0.52 0.00 52 1023.0
20260502152103 64 152 0.0 4.0 0.00 0.52 0.00 52 1023.0
20260502152003 64 152 0.0 4.0 0.00 0.52 0.00 52 1023.1
20260502151924 63 152 0.0 4.0 0.00 0.52 0.00 52 1023.0
20260502151803 63 152 0.0 4.0 0.00 0.52 0.00 52 1023.0
20260502151703 63 152 0.0 4.0 0.00 0.52 0.00 52 1023.1
20260502151603 63 152 0.0 4.0 0.00 0.52 0.00 52 1023.1
20260502151524 63 158 0.0 4.0 0.00 0.52 0.00 52 1023.1
20260502151403 63 156 0.0 4.0 0.00 0.52 0.00 52 1023.1
20260502151303 63 156 0.0 4.0 0.00 0.52 0.00 52 1023.1
20260502151224 63 156 0.0 4.0 0.00 0.52 0.00 51 1023.1
20260502151103 63 161 0.0 2.0 0.00 0.52 0.00 52 1023.1
20260502151003 63 161 0.0 2.0 0.00 0.52 0.00 51 1023.0
20260502150903 63 161 0.0 2.0 0.00 0.52 0.00 51 1023.1
20260502150803 63 161 0.0 2.0 0.00 0.52 0.00 51 1023.1
20260502150703 63 161 0.0 2.0 0.00 0.52 0.00 51 1023.0
20260502150603 63 161 0.0 2.0 0.00 0.52 0.00 51 1023.1
20260502150524 63 157 0.0 2.0 0.00 0.52 0.00 51 1023.0
20260502150403 63 168 0.0 2.0 0.00 0.52 0.00 51 1023.0
20260502150303 63 176 0.0 2.0 0.00 0.52 0.00 51 1023.0
20260502150203 63 178 0.0 2.0 0.00 0.52 0.00 51 1023.0
20260502150103 62 202 0.0 1.0 0.00 0.52 0.00 51 1023.0
20260502140124 59 163 0.0 4.0 0.00 0.68 0.00 38 1022.4
20260502130703 56 153 0.0 2.0 0.00 0.75 0.00 1 1021.8
20260502130603 56 153 0.0 2.0 0.00 0.75 0.00 1 1021.8
20260502130503 56 153 0.0 2.0 0.00 0.75 0.00 1 1021.8
20260502130403 56 153 0.0 2.0 0.00 0.75 0.00 1 1021.7
20260502130303 56 0 0.0 0.0 0.00 0.76 0.00 1 1021.8
20260502130203 56 0 0.0 0.0 0.00 0.76 0.00 1 1021.8
20260502123803 54 0 0.0 0.0 0.00 0.86 0.00 1 1021.4
20260502123724 54 0 0.0 0.0 0.00 0.86 0.00 1 1021.3
20260502123603 54 0 0.0 0.0 0.00 0.87 0.00 1 1021.3
20260502123524 54 0 0.0 0.0 0.00 0.87 0.00 1 1021.3
20260502123404 54 0 0.0 0.0 0.00 0.87 0.00 1 1021.3
20260502123303 54 0 0.0 0.0 0.00 0.87 0.00 1 1021.3
20260502123203 54 0 0.0 0.0 0.00 0.87 0.00 1 1021.2
20260502123103 53 0 0.0 0.0 0.00 0.87 0.00 1 1021.2
20260502123003 53 0 0.0 0.0 0.00 0.87 0.00 1 1021.1
20260502122924 53 0 0.0 0.0 0.00 0.87 0.00 1 1021.1
20260502122803 53 0 0.0 0.0 0.00 0.87 0.00 1 1021.2
20260502122703 53 0 0.0 0.0 0.00 0.87 0.00 1 1021.2
20260502122604 53 0 0.0 0.0 0.00 0.87 0.00 1 1021.1
20260502122505 53 0 0.0 0.0 0.00 0.87 0.00 1 1021.2
20260502122425 53 0 0.0 0.0 0.00 0.87 0.00 1 1021.2
20260502122306 53 0 0.0 0.0 0.00 0.88 0.00 1 1021.2
20260502122205 53 0 0.0 0.0 0.00 0.88 0.00 1 1021.1
20260502122104 53 0 0.0 0.0 0.00 0.88 0.00 1 1021.1
20260502122004 53 0 0.0 0.0 0.00 0.88 0.00 1 1021.1
20260502121904 53 0 0.0 0.0 0.00 0.88 0.00 1 1021.1
20260502121804 53 0 0.0 0.0 0.00 0.89 0.00 1 1021.1
20260502121704 53 0 0.0 0.0 0.00 0.89 0.00 1 1021.1
20260502121604 53 0 0.0 0.0 0.00 0.90 0.00 1 1021.1
20260502121504 53 0 0.0 0.0 0.00 0.90 0.00 1 1021.0
20260502121425 53 0 0.0 0.0 0.00 0.91 0.00 1 1021.0
20260502121325 53 0 0.0 0.0 0.00 0.91 0.00 1 1021.0
20260502121204 53 0 0.0 0.0 0.00 0.92 0.00 1 1021.1
20260502121125 53 0 0.0 0.0 0.00 0.92 0.00 1 1021.0
20260502121005 53 0 0.0 0.0 0.00 0.93 0.00 1 1021.0
20260502120904 53 0 0.0 0.0 0.00 0.94 0.00 1 1020.9
20260502120825 52 0 0.0 0.0 0.00 0.94 0.00 1 1020.9
20260502120704 52 0 0.0 0.0 0.00 0.95 0.00 1 1021.0
20260502120604 52 0 0.0 0.0 0.00 0.95 0.00 1 1020.9
20260502120525 52 0 0.0 0.0 0.00 0.96 0.00 1 1020.9
20260502120404 52 0 0.0 0.0 0.00 0.96 0.00 1 1020.8
20260502120305 52 0 0.0 0.0 0.00 0.97 0.00 1 1020.8
20260502120204 52 0 0.0 0.0 0.00 0.97 0.00 1 1020.8
20260502120126 52 0 0.0 0.0 0.00 0.98 0.00 1 1020.8
20260502115904 52 0 0.0 0.0 0.00 0.99 0.00 1 1020.8
20260502115804 52 0 0.0 0.0 0.00 0.99 0.00 1 1020.8
20260502115704 52 0 0.0 0.0 0.00 1.00 0.00 1 1020.8
20260502115605 52 0 0.0 0.0 0.00 1.00 0.00 1 1020.8
20260502115504 52 0 0.0 0.0 0.00 1.00 0.00 1 1020.8
20260502115404 52 0 0.0 0.0 0.00 1.01 0.00 1 1020.7
20260502115306 52 0 0.0 0.0 0.00 1.01 0.00 1 1020.7
20260502115204 52 0 0.0 0.0 0.00 1.01 0.00 1 1020.7
20260502115104 52 0 0.0 0.0 0.00 1.02 0.00 1 1020.7
20260502115005 52 0 0.0 0.0 0.00 1.02 0.00 1 1020.6
20260502114904 52 0 0.0 0.0 0.00 1.02 0.00 1 1020.7
20260502114825 52 0 0.0 0.0 0.00 1.02 0.00 1 1020.6
20260502114704 52 0 0.0 0.0 0.00 1.03 0.00 1 1020.6
20260502114604 52 0 0.0 0.0 0.00 1.03 0.00 1 1020.6
20260502114304 52 0 0.0 0.0 0.00 1.04 0.00 1 1020.6
20260502114204 52 0 0.0 0.0 0.00 1.04 0.00 1 1020.6
20260502114104 52 0 0.0 0.0 0.00 1.04 0.00 1 1020.6
20260502114004 52 0 0.0 0.0 0.00 1.04 0.00 1 1020.5
20260502113904 52 0 0.0 0.0 0.00 1.04 0.00 1 1020.5
20260502113804 52 0 0.0 0.0 0.00 1.04 0.00 1 1020.5
20260502113704 52 0 0.0 0.0 0.00 1.04 0.00 1 1020.4
20260502113604 52 0 0.0 0.0 0.00 1.04 0.00 1 1020.5
20260502113526 52 0 0.0 0.0 0.00 1.05 0.00 1 1020.5
20260502113405 52 0 0.0 0.0 0.00 1.05 0.00 1 1020.5
20260502113304 52 0 0.0 0.0 0.00 1.05 0.00 1 1020.5
20260502113204 52 0 0.0 0.0 0.00 1.05 0.00 1 1020.4
20260502113126 52 0 0.0 0.0 0.00 1.05 0.00 1 1020.4
20260502113004 52 0 0.0 0.0 0.00 1.06 0.00 1 1020.4
20260502112904 52 0 0.0 0.0 0.00 1.06 0.00 1 1020.4
20260502112804 52 0 0.0 0.0 0.00 1.06 0.00 1 1020.4
20260502112725 52 0 0.0 0.0 0.00 1.07 0.00 1 1020.4
20260502112605 52 0 0.0 0.0 0.00 1.07 0.00 1 1020.4
20260502112526 52 0 0.0 0.0 0.00 1.07 0.00 1 1020.4
20260502112404 52 0 0.0 0.0 0.00 1.07 0.00 1 1020.4
20260502112306 52 0 0.0 0.0 0.00 1.07 0.00 1 1020.3
20260502112204 52 0 0.0 0.0 0.00 1.08 0.00 1 1020.4
20260502112104 52 0 0.0 0.0 0.00 1.08 0.00 1 1020.3
20260502112004 52 0 0.0 0.0 0.00 1.08 0.00 1 1020.3
20260502111904 52 0 0.0 0.0 0.00 1.08 0.00 1 1020.3
20260502111805 52 0 0.0 0.0 0.00 1.09 0.00 1 1020.4
20260502111704 52 0 0.0 0.0 0.00 1.09 0.00 1 1020.4
20260502111604 52 0 0.0 0.0 0.00 1.09 0.00 1 1020.4
20260502111504 52 0 0.0 0.0 0.00 1.10 0.00 1 1020.4
20260502111404 52 0 0.0 0.0 0.00 1.10 0.00 1 1020.4
20260502111304 52 0 0.0 0.0 0.00 1.10 0.00 1 1020.4
20260502111205 52 0 0.0 0.0 0.00 1.11 0.00 1 1020.3
20260502111125 52 0 0.0 0.0 0.00 1.11 0.00 1 1020.3
20260502111004 52 0 0.0 0.0 0.00 1.12 0.00 1 1020.3
20260502110904 52 0 0.0 0.0 0.00 1.12 0.00 1 1020.3
20260502110825 52 0 0.0 0.0 0.00 1.13 0.00 1 1020.3
20260502110704 52 0 0.0 0.0 0.00 1.14 0.00 1 1020.2
20260502110604 52 0 0.0 0.0 0.00 1.14 0.00 1 1020.2
20260502110505 52 0 0.0 0.0 0.00 1.15 0.00 1 1020.2
20260502110405 52 0 0.0 0.0 0.00 1.15 0.00 1 1020.2
20260502110304 52 0 0.0 0.0 0.00 1.16 0.00 1 1020.2
20260502110204 52 0 0.0 0.0 0.00 1.16 0.00 1 1020.2
20260502110104 52 0 0.0 0.0 0.00 1.17 0.00 1 1020.3
20260502110005 52 0 0.0 0.0 0.00 1.17 0.00 1 1020.3
20260502105904 52 0 0.0 0.0 0.00 1.18 0.00 1 1020.3
20260502105804 52 0 0.0 0.0 0.00 1.18 0.00 1 1020.3
20260502105725 52 0 0.0 0.0 0.00 1.19 0.00 1 1020.2
20260502105604 52 0 0.0 0.0 0.00 1.19 0.00 1 1020.2
20260502105504 52 0 0.0 0.0 0.00 1.20 0.00 1 1020.2
20260502105404 52 0 0.0 0.0 0.00 1.20 0.00 1 1020.2
20260502105306 52 0 0.0 0.0 0.00 1.21 0.00 1 1020.2
20260502105225 52 0 0.0 0.0 0.00 1.21 0.00 1 1020.1
20260502105126 52 0 0.0 0.0 0.00 1.22 0.00 1 1020.1
20260502105025 52 0 0.0 0.0 0.00 1.22 0.00 1 1020.1
20260502104925 52 0 0.0 0.0 0.00 1.22 0.00 1 1020.0
20260502104804 52 0 0.0 0.0 0.00 1.23 0.00 1 1020.0
20260502104725 52 0 0.0 0.0 0.00 1.23 0.00 1 1020.0
20260502104604 52 0 0.0 0.0 0.00 1.23 0.00 1 1020.0
20260502104526 52 0 0.0 0.0 0.00 1.24 0.00 1 1020.0
20260502104404 53 0 0.0 0.0 0.00 1.24 0.00 1 1020.0
20260502104304 53 0 0.0 0.0 0.00 1.24 0.00 1 1019.9
20260502104205 53 0 0.0 0.0 0.00 1.25 0.00 1 1019.9
20260502104104 53 0 0.0 0.0 0.00 1.25 0.00 1 1019.9
20260502104005 53 0 0.0 0.0 0.00 1.26 0.00 1 1019.8
20260502103904 53 0 0.0 0.0 0.00 1.26 0.00 1 1019.8
20260502103805 53 0 0.0 0.0 0.00 1.26 0.00 1 1019.8
20260502103704 53 0 0.0 0.0 0.00 1.26 0.00 1 1019.8
20260502103605 53 0 0.0 0.0 0.00 1.27 0.00 1 1019.8
20260502103504 53 0 0.0 0.0 0.00 1.27 0.00 1 1019.8
20260502103404 53 0 0.0 0.0 0.00 1.28 0.00 1 1019.8
20260502103304 53 0 0.0 0.0 0.00 1.28 0.00 1 1019.7
20260502103204 53 0 0.0 0.0 0.00 1.29 0.00 1 1019.7
20260502103105 53 0 0.0 0.0 0.00 1.29 0.00 1 1019.7
20260502103004 53 0 0.0 0.0 0.00 1.29 0.00 1 1019.7
20260502102904 53 0 0.0 0.0 0.00 1.30 0.00 1 1019.6
20260502102825 53 0 0.0 0.0 0.00 1.30 0.00 1 1019.6
20260502102726 53 0 0.0 0.0 0.00 1.31 0.00 1 1019.6
20260502102625 53 0 0.0 0.0 0.00 1.31 0.00 1 1019.5
20260502102525 53 0 0.0 0.0 0.00 1.32 0.00 1 1019.5
20260502102404 53 0 0.0 0.0 0.00 1.32 0.00 1 1019.5
20260502102306 53 0 0.0 0.0 0.00 1.32 0.00 1 1019.4
20260502102226 53 0 0.0 0.0 0.00 1.33 0.00 1 1019.4
20260502102104 53 0 0.0 0.0 0.00 1.33 0.00 1 1019.4
20260502102004 53 0 0.0 0.0 0.00 1.33 0.00 1 1019.4
20260502101904 53 0 0.0 0.0 0.00 1.34 0.00 1 1019.4
20260502101804 53 0 0.0 0.0 0.00 1.34 0.00 1 1019.4
20260502101604 53 0 0.0 0.0 0.00 1.34 0.00 1 1019.3
20260502101504 53 0 0.0 0.0 0.00 1.35 0.00 1 1019.3
20260502101404 53 0 0.0 0.0 0.00 1.35 0.00 1 1019.3
20260502101304 53 0 0.0 0.0 0.00 1.35 0.00 1 1019.3
20260502101204 53 0 0.0 0.0 0.00 1.35 0.00 1 1019.3
20260502101104 53 0 0.0 0.0 0.00 1.35 0.00 1 1019.3
20260502101004 53 0 0.0 0.0 0.00 1.35 0.00 1 1019.3
20260502100904 53 0 0.0 0.0 0.00 1.36 0.00 1 1019.2
20260502100804 53 0 0.0 0.0 0.00 1.36 0.00 1 1019.3
20260502100704 53 0 0.0 0.0 0.00 1.36 0.00 1 1019.2
20260502100604 53 0 0.0 0.0 0.00 1.36 0.00 1 1019.2
20260502100504 53 0 0.0 0.0 0.00 1.36 0.00 1 1019.3
20260502100404 53 0 0.0 0.0 0.00 1.36 0.00 1 1019.2
20260502100304 53 0 0.0 0.0 0.00 1.36 0.00 1 1019.2
20260502100204 53 0 0.0 0.0 0.00 1.36 0.00 1 1019.2
20260502100125 53 0 0.0 0.0 0.00 1.36 0.00 1 1019.2
20260502091504 53 176 0.0 2.0 0.00 1.45 0.00 1 1018.7
20260502091404 53 176 0.0 2.0 0.00 1.45 0.00 1 1018.6
20260502091325 53 176 0.0 2.0 0.00 1.45 0.00 1 1018.6
20260502091204 53 181 0.0 2.0 0.00 1.45 0.00 1 1018.6
20260502091104 53 175 0.0 2.0 0.00 1.46 0.00 1 1018.6
20260502091004 53 175 0.0 2.0 0.00 1.46 0.00 1 1018.7
20260502090904 53 174 0.0 2.0 0.00 1.46 0.00 1 1018.6
20260502090805 53 172 0.0 2.0 0.00 1.46 0.00 1 1018.7
20260502090704 53 172 0.0 2.0 0.00 1.46 0.00 1 1018.7
20260502090604 53 168 0.0 2.0 0.00 1.46 0.00 1 1018.7
20260502090504 53 166 0.0 2.0 0.00 1.46 0.00 1 1018.6
20260502090404 53 166 0.0 2.0 0.00 1.46 0.00 1 1018.7
20260502090304 53 166 0.0 2.0 0.00 1.46 0.00 1 1018.7
20260502090204 53 161 0.0 2.0 0.00 1.46 0.00 1 1018.6
20260502090104 53 162 0.0 2.0 0.00 1.46 0.00 1 1018.6
20260502071504 54 152 0.0 2.0 0.00 1.51 0.00 1 1018.5
20260502071404 54 152 0.0 2.0 0.00 1.51 0.00 1 1018.5
20260502071304 54 152 0.0 2.0 0.00 1.51 0.00 1 1018.5
20260502071204 54 152 0.0 2.0 0.00 1.51 0.00 1 1018.5
20260502071104 54 152 0.0 2.0 0.00 1.51 0.00 1 1018.4
20260502071004 54 152 0.0 2.0 0.00 1.51 0.00 1 1018.4
20260502070904 54 152 0.0 2.0 0.00 1.51 0.00 1 1018.4
20260502070804 54 0 0.0 0.0 0.00 1.51 0.00 1 1018.4
20260502070704 54 0 0.0 0.0 0.00 1.51 0.00 1 1018.4
20260502070604 54 0 0.0 0.0 0.00 1.51 0.00 1 1018.4
20260502070504 54 0 0.0 0.0 0.00 1.51 0.00 1 1018.3
20260502070404 54 0 0.0 0.0 0.00 1.51 0.00 1 1018.4
20260502070304 54 0 0.0 1.0 0.00 1.51 0.00 1 1018.3
20260502070204 54 0 0.0 1.0 0.00 1.51 0.00 1 1018.3
20260502070104 54 0 0.0 1.0 0.00 1.51 0.00 1 1018.3
20260502070004 54 0 0.0 1.0 0.00 1.51 0.00 1 1018.4
20260502065904 54 0 0.0 1.0 0.00 1.51 0.00 1 1018.3
20260502065804 54 0 0.0 1.0 0.00 1.51 0.00 1 1018.3
20260502065726 54 0 0.0 1.0 0.00 1.51 0.00 1 1018.3
20260502065604 54 0 0.0 1.0 0.00 1.51 0.00 1 1018.3
20260502065525 54 0 0.0 1.0 0.00 1.51 0.00 1 1018.4
20260502065404 54 0 0.0 1.0 0.00 1.51 0.00 1 1018.4
20260502065306 54 0 0.0 0.0 0.00 1.51 0.00 1 1018.4
20260502065204 54 0 0.0 0.0 0.00 1.51 0.00 1 1018.4
20260502065104 54 0 0.0 0.0 0.00 1.51 0.00 1 1018.4
20260502065004 54 0 0.0 0.0 0.00 1.51 0.00 1 1018.4
20260502064904 55 0 0.0 0.0 0.00 1.51 0.00 1 1018.4
20260502064805 55 0 0.0 0.0 0.00 1.51 0.00 1 1018.4
20260502064705 55 0 0.0 0.0 0.00 1.51 0.00 1 1018.4
20260502064604 55 0 0.0 0.0 0.00 1.51 0.00 1 1018.5
20260502064505 55 0 0.0 0.0 0.00 1.51 0.00 1 1018.5
20260502064404 55 0 0.0 0.0 0.00 1.51 0.00 1 1018.4
20260502064304 55 0 0.0 0.0 0.00 1.51 0.00 1 1018.4
20260502064204 55 0 0.0 0.0 0.00 1.51 0.00 1 1018.5
20260502064125 55 0 0.0 0.0 0.00 1.51 0.00 1 1018.5
20260502064004 55 0 0.0 0.0 0.00 1.51 0.00 1 1018.5
20260502063904 55 0 0.0 0.0 0.00 1.51 0.00 1 1018.4
20260502063804 55 0 0.0 0.0 0.00 1.51 0.00 1 1018.4
20260502063704 55 0 0.0 0.0 0.00 1.51 0.00 1 1018.5
20260502063625 55 0 0.0 0.0 0.00 1.51 0.00 1 1018.4
20260502063504 55 0 0.0 0.0 0.00 1.51 0.00 1 1018.5
20260502063404 55 0 0.0 0.0 0.00 1.51 0.00 1 1018.4
20260502063304 55 0 0.0 0.0 0.00 1.51 0.00 1 1018.4
20260502063204 55 0 0.0 0.0 0.00 1.51 0.00 1 1018.5
20260502063104 55 0 0.0 0.0 0.00 1.51 0.00 1 1018.4
20260502063004 55 0 0.0 0.0 0.00 1.51 0.00 1 1018.5
20260502062904 55 0 0.0 0.0 0.00 1.51 0.00 1 1018.5
20260502062804 55 0 0.0 0.0 0.00 1.51 0.00 1 1018.6
20260502062725 55 0 0.0 1.0 0.00 1.51 0.00 1 1018.6
20260502062604 55 0 0.0 1.0 0.00 1.51 0.00 1 1018.7
20260502062504 55 0 0.0 1.0 0.00 1.51 0.00 1 1018.7
20260502062425 55 0 0.0 1.0 0.00 1.51 0.00 1 1018.7
20260502062306 55 0 0.0 1.0 0.00 1.51 0.00 1 1018.7
20260502062204 55 0 0.0 1.0 0.00 1.51 0.00 1 1018.7
20260502062125 55 0 0.0 1.0 0.00 1.51 0.00 1 1018.7
20260502062025 55 0 0.0 1.0 0.00 1.51 0.00 1 1018.7
20260502061925 55 0 0.0 1.0 0.00 1.51 0.00 1 1018.7
20260502061804 55 0 0.0 1.0 0.00 1.51 0.00 1 1018.7
20260502061725 55 0 0.0 1.0 0.00 1.51 0.00 1 1018.7
20260502061604 55 0 0.0 1.0 0.00 1.51 0.00 1 1018.8
20260502061504 55 0 0.0 1.0 0.00 1.51 0.00 1 1018.7
20260502061404 55 0 0.0 1.0 0.00 1.51 0.00 1 1018.7
20260502061304 55 0 0.0 1.0 0.00 1.51 0.00 1 1018.7
20260502061204 55 0 0.0 1.0 0.00 1.51 0.00 1 1018.7
20260502061104 55 0 0.0 1.0 0.00 1.51 0.00 1 1018.7
20260502061004 55 0 0.0 1.0 0.00 1.51 0.00 1 1018.8
20260502060904 55 0 0.0 1.0 0.00 1.51 0.00 1 1018.8
20260502060804 55 0 0.0 1.0 0.00 1.51 0.00 1 1018.8
20260502060725 55 169 0.0 1.0 0.00 1.51 0.00 1 1018.8
20260502060604 55 194 0.0 4.0 0.00 1.51 0.00 1 1018.8
20260502060504 55 194 0.0 4.0 0.00 1.51 0.00 1 1018.8
20260502060404 55 194 0.0 4.0 0.00 1.51 0.00 1 1018.8
20260502060305 55 194 0.0 4.0 0.00 1.51 0.00 1 1018.8
20260502060225 55 194 0.0 4.0 0.00 1.51 0.00 1 1018.8
20260502060125 55 194 0.0 4.0 0.00 1.51 0.00 1 1018.8
20260502060005 55 194 0.0 4.0 0.00 1.51 0.00 1 1018.8
20260502055904 55 194 0.0 4.0 0.00 1.51 0.00 1 1018.7
20260502055804 55 194 0.0 4.0 0.00 1.51 0.00 1 1018.7
20260502055704 55 0 0.0 1.0 0.00 1.51 0.00 1 1018.7
20260502055604 55 0 0.0 1.0 0.00 1.51 0.00 1 1018.7
20260502055504 55 0 0.0 1.0 0.00 1.51 0.00 1 1018.6
20260502055426 55 0 0.0 1.0 0.00 1.51 0.00 1 1018.6
20260502055306 55 0 0.0 1.0 0.00 1.51 0.00 1 1018.6
20260502055225 55 0 0.0 1.0 0.00 1.51 0.00 1 1018.6
20260502055104 55 0 0.0 0.0 0.00 1.51 0.00 1 1018.6
20260502055004 55 0 0.0 0.0 0.00 1.51 0.00 1 1018.5
20260502054904 55 0 0.0 0.0 0.00 1.51 0.00 1 1018.5
20260502054825 55 0 0.0 0.0 0.00 1.51 0.00 1 1018.6
20260502054704 55 0 0.0 0.0 0.00 1.51 0.00 1 1018.6
20260502054604 55 0 0.0 0.0 0.00 1.51 0.00 1 1018.5
20260502054504 55 0 0.0 0.0 0.00 1.51 0.00 1 1018.5
20260502054404 55 0 0.0 0.0 0.00 1.51 0.00 1 1018.4
20260502054304 55 0 0.0 0.0 0.00 1.51 0.00 1 1018.5
20260502054204 55 188 0.0 2.0 0.00 1.51 0.00 1 1018.5
20260502054106 55 188 0.0 2.0 0.00 1.51 0.00 1 1018.4
20260502054004 55 188 0.0 2.0 0.00 1.51 0.00 1 1018.5
20260502053904 55 188 0.0 2.0 0.00 1.51 0.00 1 1018.4
20260502053804 55 189 0.0 2.0 0.00 1.51 0.00 1 1018.4
20260502053704 55 189 0.0 2.0 0.00 1.51 0.00 1 1018.5
20260502053604 55 189 0.0 2.0 0.00 1.51 0.00 1 1018.5
20260502053504 55 189 0.0 2.0 0.00 1.51 0.00 1 1018.4
20260502053405 55 189 0.0 2.0 0.00 1.51 0.00 1 1018.5
20260502053325 55 189 0.0 2.0 0.00 1.51 0.00 1 1018.4
20260502053204 55 190 0.0 2.0 0.00 1.51 0.00 1 1018.5
20260502053104 55 190 0.0 2.0 0.00 1.51 0.00 1 1018.5
20260502053025 55 190 0.0 2.0 0.00 1.51 0.00 1 1018.5
20260502052904 55 190 0.0 2.0 0.00 1.51 0.00 1 1018.5
20260502052804 55 0 0.0 0.0 0.00 1.51 0.00 1 1018.5
20260502052704 55 0 0.0 0.0 0.00 1.51 0.00 1 1018.6
20260502052604 55 0 0.0 0.0 0.00 1.51 0.00 1 1018.6
20260502052504 55 0 0.0 0.0 0.00 1.51 0.00 1 1018.5
20260502052404 55 0 0.0 0.0 0.00 1.51 0.00 1 1018.5
20260502052306 55 0 0.0 0.0 0.00 1.51 0.00 1 1018.5
20260502052205 55 0 0.0 0.0 0.00 1.51 0.00 1 1018.5
20260502052104 55 0 0.0 0.0 0.00 1.51 0.00 1 1018.5
20260502052004 55 0 0.0 0.0 0.00 1.51 0.00 1 1018.5
20260502051904 55 0 0.0 0.0 0.00 1.51 0.00 1 1018.5
20260502051804 55 0 0.0 0.0 0.00 1.51 0.00 1 1018.5
20260502051704 55 0 0.0 0.0 0.00 1.51 0.00 1 1018.4
20260502051604 55 0 0.0 0.0 0.00 1.51 0.00 1 1018.4
20260502051504 55 0 0.0 0.0 0.00 1.51 0.00 1 1018.4
20260502051404 55 0 0.0 0.0 0.00 1.51 0.00 1 1018.4
20260502051325 55 0 0.0 0.0 0.00 1.51 0.00 1 1018.3
20260502051204 55 0 0.0 0.0 0.00 1.51 0.00 1 1018.3
20260502051104 55 0 0.0 0.0 0.00 1.51 0.00 1 1018.3
20260502051004 55 0 0.0 0.0 0.00 1.51 0.00 1 1018.3
20260502050904 55 0 0.0 0.0 0.00 1.51 0.00 1 1018.3
20260502050804 55 0 0.0 0.0 0.00 1.51 0.00 1 1018.3
20260502050704 55 0 0.0 0.0 0.00 1.52 0.00 1 1018.3
20260502050604 55 0 0.0 0.0 0.00 1.52 0.00 1 1018.3
20260502050504 55 0 0.0 0.0 0.00 1.52 0.00 1 1018.4
20260502050425 55 0 0.0 0.0 0.00 1.52 0.00 1 1018.4
20260502050325 55 0 0.0 0.0 0.00 1.52 0.00 1 1018.3
20260502050205 55 0 0.0 0.0 0.00 1.52 0.00 1 1018.4
20260502050104 55 0 0.0 0.0 0.00 1.52 0.00 1 1018.4
20260502050004 55 0 0.0 0.0 0.00 1.52 0.00 1 1018.3
20260502045904 55 0 0.0 0.0 0.00 1.52 1.52 1 1018.3
20260502045804 55 0 0.0 0.0 0.00 1.52 1.52 1 1018.3
20260502045704 55 0 0.0 0.0 0.00 1.52 1.52 1 1018.3
20260502045604 55 0 0.0 0.0 0.00 1.52 1.52 1 1018.3
20260502045504 55 0 0.0 0.0 0.00 1.52 1.52 1 1018.3
20260502045404 55 0 0.0 0.0 0.00 1.52 1.52 1 1018.3
20260502045306 55 0 0.0 0.0 0.00 1.52 1.52 1 1018.3
20260502045204 55 0 0.0 0.0 0.00 1.52 1.52 1 1018.3
20260502045125 55 0 0.0 0.0 0.00 1.52 1.52 1 1018.3
20260502045004 55 0 0.0 0.0 0.00 1.52 1.52 1 1018.3
20260502044904 55 0 0.0 0.0 0.00 1.52 1.52 1 1018.3
20260502044825 55 0 0.0 0.0 0.00 1.52 1.52 1 1018.3
20260502044705 55 0 0.0 0.0 0.00 1.52 1.52 1 1018.3
20260502044604 55 0 0.0 0.0 0.00 1.52 1.52 1 1018.3
20260502044504 55 0 0.0 0.0 0.00 1.52 1.52 1 1018.2
20260502044404 55 0 0.0 0.0 0.00 1.52 1.52 1 1018.2
20260502044325 55 0 0.0 0.0 0.00 1.52 1.52 1 1018.2
20260502044204 55 0 0.0 0.0 0.00 1.52 1.52 1 1018.2
20260502044125 55 0 0.0 0.0 0.00 1.52 1.52 1 1018.2
20260502044025 55 0 0.0 0.0 0.00 1.52 1.52 1 1018.2
20260502043904 55 0 0.0 0.0 0.00 1.52 1.52 1 1018.2
20260502043804 55 0 0.0 0.0 0.00 1.52 1.52 1 1018.2
20260502043704 55 0 0.0 0.0 0.00 1.52 1.52 1 1018.2
20260502043604 55 0 0.0 0.0 0.00 1.52 1.52 1 1018.3
20260502043504 55 0 0.0 0.0 0.00 1.52 1.52 1 1018.3
20260502043404 55 0 0.0 0.0 0.00 1.52 1.52 1 1018.2
20260502043325 55 0 0.0 0.0 0.00 1.52 1.52 1 1018.2
20260502043225 55 0 0.0 0.0 0.00 1.52 1.52 1 1018.2
20260502043104 55 0 0.0 0.0 0.00 1.52 1.52 1 1018.2
20260502043004 55 0 0.0 0.0 0.00 1.52 1.52 1 1018.2
20260502042904 55 0 0.0 0.0 0.00 1.52 1.52 1 1018.2
20260502042805 55 0 0.0 0.0 0.00 1.52 1.52 1 1018.2
20260502042704 56 0 0.0 0.0 0.00 1.52 1.52 1 1018.2
20260502042604 56 0 0.0 0.0 0.00 1.52 1.52 1 1018.2
20260502042504 56 0 0.0 0.0 0.00 1.52 1.52 1 1018.3
20260502042425 56 0 0.0 0.0 0.00 1.52 1.52 1 1018.3
20260502042306 56 0 0.0 0.0 0.00 1.52 1.52 1 1018.3
20260502042204 56 0 0.0 0.0 0.00 1.52 1.52 1 1018.3
20260502042126 56 0 0.0 0.0 0.00 1.52 1.52 1 1018.3
20260502042025 56 0 0.0 0.0 0.00 1.52 1.52 1 1018.3
20260502041904 56 0 0.0 0.0 0.00 1.52 1.52 1 1018.3
20260502041804 56 0 0.0 0.0 0.00 1.52 1.52 1 1018.3
20260502041704 56 0 0.0 0.0 0.00 1.52 1.52 1 1018.3
20260502041604 56 0 0.0 0.0 0.00 1.52 1.52 1 1018.3
20260502041504 56 0 0.0 0.0 0.00 1.52 1.52 1 1018.3
20260502041404 56 0 0.0 0.0 0.00 1.52 1.52 1 1018.4
20260502041304 56 0 0.0 0.0 0.00 1.52 1.52 1 1018.4
20260502041204 56 0 0.0 0.0 0.00 1.52 1.52 1 1018.4
20260502041125 56 0 0.0 0.0 0.00 1.52 1.52 1 1018.4
20260502041004 56 0 0.0 0.0 0.00 1.52 1.52 1 1018.4
20260502040904 56 0 0.0 0.0 0.00 1.52 1.52 1 1018.4
20260502040825 56 0 0.0 0.0 0.00 1.52 1.52 1 1018.4
20260502040704 56 0 0.0 0.0 0.00 1.52 1.52 1 1018.4
20260502040604 56 0 0.0 0.0 0.00 1.52 1.52 1 1018.4
20260502040504 56 0 0.0 0.0 0.00 1.52 1.52 1 1018.4
20260502040404 56 211 0.0 1.0 0.00 1.52 1.52 1 1018.4
20260502040304 56 211 0.0 1.0 0.00 1.52 1.52 1 1018.4
20260502040204 56 211 0.0 1.0 0.00 1.52 1.52 1 1018.4
20260502040104 56 211 0.0 1.0 0.00 1.52 1.52 1 1018.4
20260502040004 56 211 0.0 1.0 0.00 1.52 1.52 1 1018.3
20260502035904 56 211 0.0 1.0 0.00 1.52 1.52 1 1018.3
20260502035804 56 211 0.0 1.0 0.00 1.52 1.52 1 1018.3
20260502035704 56 211 0.0 1.0 0.00 1.52 1.52 1 1018.3
20260502035604 56 203 0.0 1.0 0.00 1.52 1.52 1 1018.3
20260502035504 56 203 0.0 1.0 0.00 1.52 1.52 1 1018.3
20260502035404 56 197 0.0 1.0 0.00 1.52 1.52 1 1018.3
20260502035306 56 197 0.0 1.0 0.00 1.52 1.52 1 1018.4
20260502035225 56 197 0.0 1.0 0.00 1.52 1.52 1 1018.4
20260502035104 56 197 0.0 1.0 0.00 1.52 1.52 1 1018.4
20260502035025 56 197 0.0 1.0 0.00 1.52 1.52 1 1018.4
20260502034925 56 197 0.0 1.0 0.00 1.52 1.52 1 1018.4
20260502034804 56 197 0.0 1.0 0.00 1.52 1.52 1 1018.4
20260502034725 56 197 0.0 1.0 0.00 1.52 1.52 1 1018.4
20260502034604 56 0 0.0 0.0 0.00 1.52 1.52 1 1018.3
20260502034504 56 0 0.0 0.0 0.00 1.52 1.52 1 1018.4
20260502034425 56 0 0.0 0.0 0.00 1.52 1.52 1 1018.3
20260502034304 56 0 0.0 0.0 0.00 1.52 1.52 1 1018.3
20260502034204 56 0 0.0 0.0 0.00 1.52 1.52 1 1018.3
20260502034104 56 0 0.0 0.0 0.00 1.52 1.52 1 1018.2
20260502034025 56 0 0.0 0.0 0.00 1.52 1.52 1 1018.2
20260502033904 56 0 0.0 0.0 0.00 1.52 1.52 1 1018.3
20260502033825 56 0 0.0 0.0 0.00 1.52 1.52 1 1018.3
20260502033725 56 218 0.0 2.0 0.00 1.52 1.52 1 1018.2
20260502033604 56 218 0.0 2.0 0.00 1.52 1.52 1 1018.3
20260502033504 56 218 0.0 2.0 0.00 1.52 1.52 1 1018.3
20260502033404 56 218 0.0 2.0 0.00 1.52 1.52 1 1018.2
20260502033304 56 218 0.0 2.0 0.00 1.52 1.52 1 1018.3
20260502033204 56 218 0.0 2.0 0.00 1.52 1.52 1 1018.3
20260502033104 56 218 0.0 2.0 0.00 1.52 1.52 1 1018.3
20260502033004 56 218 0.0 2.0 0.00 1.52 1.52 1 1018.3
20260502032925 56 218 0.0 2.0 0.00 1.52 1.52 1 1018.3
20260502032825 56 218 0.0 2.0 0.00 1.52 1.52 1 1018.3
20260502032704 56 0 0.0 1.0 0.00 1.52 1.52 1 1018.4
20260502032604 56 0 0.0 1.0 0.00 1.52 1.52 1 1018.3
20260502032525 56 0 0.0 1.0 0.00 1.52 1.52 1 1018.2
20260502032425 56 0 0.0 1.0 0.00 1.52 1.52 1 1018.2
20260502032306 56 0 0.0 1.0 0.00 1.52 1.52 1 1018.3
20260502032204 56 0 0.0 1.0 0.00 1.52 1.52 1 1018.2
20260502032125 56 0 0.0 1.0 0.00 1.52 1.52 1 1018.2
20260502032025 56 0 0.0 1.0 0.00 1.52 1.52 1 1018.2
20260502031904 56 0 0.0 1.0 0.00 1.52 1.52 1 1018.2
20260502031825 56 0 0.0 1.0 0.00 1.52 1.52 1 1018.1
20260502031704 56 198 0.0 2.0 0.00 1.52 1.52 1 1018.1
20260502031604 56 206 0.0 2.0 0.00 1.52 1.52 1 1018.1
20260502031504 56 206 0.0 2.0 0.00 1.52 1.52 1 1018.1
20260502031404 56 206 0.0 2.0 0.00 1.52 1.52 1 1018.1
20260502031304 56 206 0.0 2.0 0.00 1.52 1.52 1 1018.1
20260502031204 56 213 0.0 4.0 0.00 1.52 1.52 1 1018.1
20260502031125 56 213 0.0 4.0 0.00 1.52 1.52 1 1018.1
20260502031004 56 204 0.0 4.0 0.00 1.52 1.52 1 1018.0
20260502030904 56 204 0.0 4.0 0.00 1.52 1.52 1 1018.0
20260502030804 56 205 0.0 4.0 0.00 1.52 1.52 1 1018.0
20260502030704 56 205 0.0 4.0 0.00 1.52 1.52 1 1018.0
20260502030604 56 196 0.0 4.0 0.00 1.52 1.52 1 1018.0
20260502030504 56 193 0.0 4.0 0.00 1.52 1.52 1 1018.0
20260502030404 56 193 0.0 4.0 0.00 1.52 1.52 1 1018.0
20260502030304 56 193 0.0 4.0 0.00 1.52 1.52 1 1017.9
20260502030204 56 175 0.0 4.0 0.00 1.52 1.52 1 1017.9
20260502030104 56 175 0.0 4.0 0.00 1.53 1.52 1 1018.0
20260502030004 56 177 0.0 4.0 0.00 1.53 1.52 1 1018.0
20260502025904 56 177 0.0 4.0 0.00 1.53 1.52 1 1018.0
20260502025804 56 179 0.0 4.0 0.00 1.53 1.52 1 1018.0
20260502025725 56 178 0.0 4.0 0.00 1.53 1.52 1 1017.9
20260502025604 56 178 0.0 4.0 0.00 1.53 1.52 1 1017.9
20260502025504 56 182 0.0 3.0 0.00 1.53 1.52 1 1017.9
20260502025425 56 182 0.0 3.0 0.00 1.53 1.52 1 1018.0
20260502025306 56 190 0.0 3.0 0.00 1.53 1.52 1 1017.9
20260502025204 56 191 0.0 3.0 0.00 1.53 1.52 1 1017.9
20260502025125 56 194 0.0 3.0 0.00 1.54 1.52 1 1017.8
20260502025004 56 199 0.0 3.0 0.00 1.54 1.52 1 1017.8
20260502024904 56 200 0.0 4.0 0.00 1.54 1.52 1 1017.8
20260502024825 56 200 0.0 4.0 0.00 1.54 1.52 1 1017.8
20260502024704 56 200 0.0 4.0 0.00 1.54 1.52 1 1017.7
20260502024604 56 201 1.0 8.0 0.00 1.54 1.52 1 1017.7
20260502024504 56 198 1.0 8.0 0.00 1.55 1.52 1 1017.7
20260502024405 56 198 1.0 8.0 0.00 1.55 1.52 1 1017.7
20260502024304 56 197 1.0 8.0 0.00 1.55 1.52 1 1017.5
20260502024204 56 198 1.0 8.0 0.00 1.56 1.52 1 1017.6
20260502024104 56 200 1.0 8.0 0.00 1.56 1.52 1 1017.5
20260502024025 56 198 1.0 8.0 0.00 1.56 1.52 1 1017.5
20260502023904 56 196 1.0 8.0 0.00 1.56 1.52 1 1017.5
20260502023825 56 196 0.0 8.0 0.00 1.56 1.52 1 1017.4
20260502023704 56 199 0.0 8.0 0.00 1.56 1.52 1 1017.4
20260502023604 55 205 0.0 7.0 0.00 1.56 1.52 1 1017.4
20260502023504 56 220 0.0 7.0 0.00 1.56 1.52 1 1017.3
20260502023404 56 219 0.0 7.0 0.00 1.56 1.52 1 1017.3
20260502023304 55 217 1.0 7.0 0.00 1.56 1.52 1 1017.3
20260502023205 55 212 1.0 12.0 0.00 1.56 1.52 1 1017.3
20260502023104 55 205 2.0 12.0 0.00 1.56 1.52 1 1017.2
20260502023004 55 205 2.0 12.0 0.00 1.56 1.52 1 1017.3
20260502022904 55 207 3.0 12.0 0.00 1.56 1.52 1 1017.2
20260502022804 55 208 4.0 15.0 0.00 1.56 1.52 1 1017.2
20260502022725 55 206 5.0 15.0 0.00 1.56 1.52 1 1017.2
20260502022604 55 204 6.0 15.0 0.00 1.56 1.52 1 1017.2
20260502022525 55 204 6.0 15.0 0.00 1.56 1.52 1 1017.2
20260502022404 55 204 6.0 15.0 0.00 1.56 1.52 1 1017.1
20260502022325 55 202 7.0 15.0 0.00 1.56 1.52 1 1017.1
20260502022225 55 200 7.0 15.0 0.00 1.56 1.52 1 1017.1
20260502022104 55 198 7.0 15.0 0.00 1.56 1.52 1 1017.1
20260502022004 55 199 7.0 17.0 0.00 1.56 1.52 1 1017.1
20260502021904 55 196 7.0 17.0 0.00 1.56 1.52 1 1017.1
20260502021804 55 194 7.0 17.0 0.00 1.56 1.52 1 1017.1
20260502021704 55 191 7.0 17.0 0.00 1.56 1.52 1 1017.1
20260502021604 55 190 7.0 17.0 0.00 1.56 1.52 1 1017.0
20260502021504 55 188 7.0 17.0 0.00 1.56 1.52 1 1017.1
20260502021404 55 188 8.0 17.0 0.00 1.56 1.52 1 1017.0
20260502021304 55 189 8.0 17.0 0.00 1.56 1.52 1 1017.0
20260502021225 55 189 8.0 17.0 0.00 1.56 1.52 1 1017.0
20260502021125 55 190 8.0 17.0 0.00 1.56 1.52 1 1017.0
20260502021004 55 189 7.0 13.0 0.00 1.56 1.52 1 1016.9
20260502020904 55 190 7.0 13.0 0.00 1.56 1.52 1 1017.0
20260502020804 55 189 6.0 13.0 0.00 1.56 1.52 1 1016.9
20260502020704 55 193 6.0 13.0 0.00 1.56 1.52 1 1016.9
20260502020604 55 195 7.0 14.0 0.00 1.56 1.52 1 1016.9
20260502020504 55 196 6.0 14.0 0.00 1.56 1.52 1 1016.8
20260502020404 55 198 6.0 14.0 0.00 1.56 1.52 1 1016.8
20260502020304 55 198 6.0 14.0 0.00 1.56 1.52 1 1016.8
20260502020204 55 199 6.0 14.0 0.00 1.56 1.52 1 1016.8
20260502020125 55 198 6.0 14.0 0.00 1.56 1.52 1 1016.8
20260502020025 55 195 7.0 14.0 0.00 1.56 1.52 1 1016.7
20260502015904 55 194 7.0 14.0 0.00 1.56 1.52 1 1016.7
20260502015804 55 195 7.0 14.0 0.00 1.56 1.52 1 1016.7
20260502015704 54 193 7.0 14.0 0.00 1.56 1.52 1 1016.7
20260502015604 54 191 7.0 14.0 0.00 1.56 1.52 1 1016.7
20260502015504 54 192 7.0 14.0 0.00 1.56 1.52 1 1016.7
20260502015425 54 193 7.0 14.0 0.00 1.56 1.52 1 1016.7
20260502015305 54 195 7.0 14.0 0.00 1.56 1.52 1 1016.7
20260502015204 54 194 7.0 14.0 0.00 1.56 1.52 1 1016.6
20260502015125 54 194 6.0 14.0 0.00 1.56 1.52 1 1016.6
20260502015004 54 196 6.0 12.0 0.00 1.56 1.52 1 1016.5
20260502014904 54 196 6.0 11.0 0.00 1.56 1.52 1 1016.5
20260502014805 54 197 6.0 11.0 0.00 1.56 1.52 1 1016.5
20260502014705 54 198 6.0 11.0 0.00 1.56 1.52 1 1016.5
20260502014604 54 200 6.0 11.0 0.00 1.56 1.52 1 1016.4
20260502014504 54 200 6.0 11.0 0.00 1.56 1.52 1 1016.5
20260502014404 54 199 6.0 15.0 0.00 1.56 1.52 1 1016.4
20260502014304 54 197 6.0 15.0 0.00 1.56 1.52 1 1016.5
20260502014204 54 198 6.0 15.0 0.00 1.56 1.52 1 1016.4
20260502014125 54 199 7.0 15.0 0.00 1.56 1.52 1 1016.4
20260502014004 54 203 7.0 15.0 0.00 1.56 1.52 1 1016.5
20260502013925 54 203 7.0 15.0 0.00 1.56 1.52 1 1016.4
20260502013804 54 205 7.0 15.0 0.00 1.56 1.52 1 1016.5
20260502013704 54 207 8.0 15.0 0.00 1.56 1.52 1 1016.4
20260502013604 54 205 8.0 15.0 0.00 1.56 1.52 1 1016.4
20260502013504 54 205 8.0 15.0 0.00 1.56 1.52 1 1016.4
20260502013404 54 204 7.0 14.0 0.00 1.56 1.52 1 1016.4
20260502013304 54 205 7.0 13.0 0.00 1.56 1.52 1 1016.4
20260502013204 54 204 7.0 13.0 0.00 1.56 1.52 1 1016.4
20260502013104 54 203 7.0 15.0 0.00 1.56 1.52 1 1016.3
20260502013004 54 201 6.0 15.0 0.00 1.56 1.52 1 1016.3
20260502012904 53 202 6.0 15.0 0.00 1.56 1.52 1 1016.3
20260502012804 53 202 5.0 15.0 0.00 1.56 1.52 1 1016.3
20260502012704 53 199 4.0 15.0 0.00 1.56 1.52 1 1016.3
20260502012625 53 198 4.0 15.0 0.00 1.56 1.52 1 1016.3
20260502012525 53 196 4.0 16.0 0.00 1.56 1.52 1 1016.3
20260502012404 53 195 3.0 16.0 0.00 1.56 1.52 1 1016.3
20260502012306 53 197 3.0 16.0 0.00 1.56 1.52 1 1016.3
20260502012204 53 200 4.0 16.0 0.00 1.56 1.52 1 1016.3
20260502012104 53 194 4.0 16.0 0.00 1.56 1.52 1 1016.3
20260502012004 53 196 5.0 16.0 0.00 1.56 1.52 1 1016.3
20260502011904 53 196 5.0 16.0 0.00 1.56 1.52 1 1016.2
20260502011804 53 196 6.0 16.0 0.00 1.56 1.52 1 1016.2
20260502011704 53 196 7.0 16.0 0.00 1.56 1.52 1 1016.2
20260502011604 53 196 7.0 16.0 0.00 1.56 1.52 1 1016.2
20260502011504 53 197 7.0 15.0 0.00 1.56 1.52 1 1016.1
20260502011404 53 198 8.0 15.0 0.00 1.56 1.52 1 1016.1
20260502011304 53 199 9.0 15.0 0.00 1.56 1.52 1 1016.1
20260502011204 53 198 8.0 15.0 0.01 1.56 1.52 1 1016.0
20260502011105 53 199 8.0 15.0 0.01 1.56 1.52 1 1016.0
20260502011004 53 199 7.0 15.0 0.01 1.56 1.52 1 1016.0
20260502010904 53 199 7.0 15.0 0.01 1.56 1.52 1 1016.0
20260502010804 53 200 7.0 15.0 0.01 1.56 1.52 1 1015.9
20260502010704 53 201 7.0 16.0 0.01 1.56 1.52 1 1015.9
20260502010604 53 200 7.0 16.0 0.01 1.56 1.52 1 1015.9
20260502010504 53 201 7.0 16.0 0.01 1.56 1.52 1 1015.8
20260502010404 53 201 6.0 16.0 0.01 1.56 1.52 1 1015.8
20260502010304 54 198 6.0 16.0 0.01 1.56 1.52 1 1015.8
20260502010225 54 197 6.0 16.0 0.01 1.56 1.52 1 1015.7
20260502010125 54 198 7.0 16.0 0.01 1.56 1.52 1 1015.8
20260502010025 54 196 8.0 16.0 0.01 1.56 1.52 1 1015.7
20260502005904 54 195 8.0 16.0 0.02 1.56 1.52 1 1015.8
20260502005804 54 194 8.0 16.0 0.02 1.56 1.52 1 1015.8
20260502005704 54 189 8.0 15.0 0.02 1.56 1.52 1 1015.7
20260502005604 54 189 8.0 15.0 0.02 1.56 1.52 1 1015.7
20260502005504 54 189 8.0 15.0 0.02 1.56 1.52 1 1015.8
20260502005404 54 188 8.0 15.0 0.02 1.56 1.52 1 1015.7
20260502005306 54 187 9.0 15.0 0.02 1.56 1.52 1 1015.7
20260502005204 54 187 9.0 15.0 0.02 1.56 1.52 1 1015.7
20260502005104 54 188 9.0 15.0 0.02 1.56 1.52 1 1015.6
20260502005004 54 187 8.0 15.0 0.02 1.56 1.52 1 1015.7
20260502004904 54 187 7.0 15.0 0.02 1.56 1.52 1 1015.7
20260502004804 54 187 6.0 15.0 0.02 1.56 1.52 1 1015.6
20260502004704 54 189 6.0 15.0 0.02 1.56 1.52 1 1015.7
20260502004604 54 189 5.0 15.0 0.02 1.56 1.52 1 1015.6
20260502004504 54 188 5.0 15.0 0.02 1.56 1.52 1 1015.6
20260502004404 54 187 5.0 14.0 0.02 1.56 1.52 1 1015.5
20260502004304 54 192 4.0 18.0 0.02 1.56 1.52 1 1015.6
20260502004204 54 191 4.0 18.0 0.02 1.56 1.52 1 1015.5
20260502004104 54 191 5.0 18.0 0.02 1.56 1.52 1 1015.4
20260502004004 54 196 6.0 18.0 0.02 1.56 1.52 1 1015.5
20260502003904 54 194 6.0 18.0 0.02 1.56 1.52 1 1015.5
20260502003804 54 195 7.0 18.0 0.02 1.56 1.52 1 1015.4
20260502003704 54 195 7.0 18.0 0.02 1.56 1.52 1 1015.5
20260502003625 54 195 8.0 18.0 0.02 1.56 1.52 1 1015.4
20260502003525 54 196 8.0 18.0 0.02 1.56 1.52 1 1015.4
20260502003404 54 198 8.0 18.0 0.02 1.56 1.52 1 1015.4
20260502003325 54 196 8.0 16.0 0.02 1.56 1.52 1 1015.3
20260502003204 54 198 7.0 16.0 0.02 1.56 1.52 1 1015.3
20260502003104 54 197 8.0 16.0 0.02 1.56 1.52 1 1015.3
20260502003004 54 191 8.0 16.0 0.02 1.56 1.52 1 1015.3
20260502002925 54 191 8.0 16.0 0.02 1.56 1.52 1 1015.2
20260502002804 54 191 8.0 16.0 0.02 1.56 1.52 1 1015.3
20260502002704 54 193 8.0 16.0 0.02 1.56 1.52 1 1015.2
20260502002604 54 191 8.0 16.0 0.02 1.56 1.52 1 1015.2
20260502002525 54 191 7.0 16.0 0.02 1.56 1.52 1 1015.3
20260502002404 54 191 7.0 17.0 0.02 1.56 1.52 1 1015.2
20260502002305 54 190 7.0 17.0 0.02 1.56 1.52 1 1015.2
20260502002204 54 190 6.0 17.0 0.02 1.56 1.52 1 1015.3
20260502002104 54 188 6.0 17.0 0.02 1.56 1.52 1 1015.1
20260502002004 54 193 5.0 17.0 0.02 1.56 1.52 1 1015.1
20260502001904 54 193 5.0 17.0 0.02 1.56 1.52 1 1015.1
20260502001804 54 192 4.0 17.0 0.02 1.56 1.52 1 1015.1
20260502001704 54 191 4.0 17.0 0.02 1.56 1.52 1 1015.1
20260502001625 54 190 3.0 17.0 0.02 1.56 1.52 1 1015.1
20260502001504 54 192 3.0 17.0 0.02 1.56 1.52 1 1015.0
20260502001425 54 192 4.0 17.0 0.02 1.56 1.52 1 1015.0
20260502001304 54 198 4.0 17.0 0.02 1.56 1.52 1 1014.9
20260502001204 54 193 5.0 17.0 0.01 1.55 1.51 1 1014.8
20260502001104 54 197 4.0 17.0 0.01 1.55 1.51 1 1014.7
20260502001004 54 194 5.0 17.0 0.01 1.55 1.51 1 1014.6
20260502000904 54 193 5.0 17.0 0.01 1.55 1.51 1 1014.6
20260502000804 54 193 5.0 17.0 0.01 1.55 1.51 1 1014.5
20260502000704 54 194 6.0 17.0 0.01 1.55 1.51 1 1014.4
20260502000604 54 193 6.0 17.0 0.01 1.55 1.51 1 1014.4
20260502000504 54 192 7.0 17.0 0.01 1.55 1.51 1 1014.4
20260502000404 54 193 7.0 14.0 0.01 1.55 1.51 1 1014.5
20260502000304 54 193 7.0 15.0 0.01 1.55 1.51 1 1014.5
20260502000204 54 196 7.0 15.0 0.01 1.55 1.51 1 1014.6
20260502000104 54 195 7.0 15.0 0.01 1.55 1.51 1 1014.7
20260502000004 54 196 7.0 15.0 0.01 1.55 1.51 1 1014.8
20260501235904 54 197 8.0 15.0 0.00 1.54 1.50 1 1014.8
20260501235804 54 197 8.0 15.0 0.00 1.54 1.50 1 1014.8
20260501235725 54 195 8.0 16.0 0.00 1.54 1.50 1 1014.9
20260501235625 54 195 8.0 16.0 0.00 1.54 1.50 1 1014.9
20260501235504 54 195 8.0 16.0 0.00 1.54 1.50 1 1015.0
20260501235425 54 194 8.0 16.0 0.00 1.54 1.50 1 1015.0
20260501235305 54 192 7.0 16.0 0.00 1.54 1.50 1 1015.1
20260501235204 54 191 7.0 16.0 0.00 1.54 1.50 1 1015.1
20260501235125 54 192 7.0 16.0 0.00 1.54 1.50 1 1015.2
20260501235004 54 191 7.0 16.0 0.00 1.54 1.50 1 1015.2
20260501234925 54 190 6.0 16.0 0.00 1.54 1.50 1 1015.3
20260501234804 54 191 5.0 16.0 0.00 1.54 1.50 1 1015.3
20260501234704 54 192 5.0 17.0 0.00 1.54 1.50 1 1015.3
20260501234604 54 191 4.0 17.0 0.00 1.54 1.50 1 1015.3
20260501234504 55 191 4.0 17.0 0.00 1.54 1.50 1 1015.3
20260501234404 55 191 4.0 17.0 0.00 1.54 1.50 1 1015.3
20260501234304 54 191 4.0 17.0 0.01 1.54 1.50 1 1015.2
20260501234204 54 189 4.0 17.0 0.01 1.54 1.50 1 1015.1
20260501234105 55 193 4.0 17.0 0.01 1.54 1.50 1 1015.1
20260501234004 54 195 5.0 17.0 0.01 1.54 1.50 1 1015.1
20260501233904 55 197 5.0 17.0 0.01 1.54 1.50 1 1015.1
20260501233804 54 198 6.0 17.0 0.01 1.54 1.50 1 1015.2
20260501233704 54 197 8.0 18.0 0.01 1.54 1.50 1 1015.2
20260501233604 54 198 8.0 20.0 0.01 1.54 1.50 1 1015.2
20260501233525 54 197 9.0 20.0 0.01 1.54 1.50 1 1015.1
20260501233425 54 197 9.0 20.0 0.01 1.54 1.50 1 1015.0
20260501233304 54 196 9.0 20.0 0.01 1.54 1.50 1 1014.9
20260501233204 54 197 9.0 20.0 0.01 1.54 1.50 1 1014.9
20260501233104 55 195 9.0 20.0 0.01 1.54 1.50 1 1014.8
20260501233004 54 195 10.0 20.0 0.01 1.54 1.50 1 1014.8
20260501232904 54 195 10.0 20.0 0.01 1.54 1.50 1 1014.8
20260501232804 54 194 10.0 20.0 0.01 1.54 1.50 1 1014.8
20260501232704 55 193 10.0 20.0 0.01 1.54 1.50 1 1014.8
20260501232604 55 192 10.0 19.0 0.01 1.54 1.50 1 1014.9
20260501232504 55 193 10.0 19.0 0.01 1.54 1.50 1 1014.8
20260501232404 55 193 10.0 19.0 0.01 1.54 1.50 1 1014.8
20260501232306 55 195 10.0 19.0 0.01 1.54 1.50 1 1014.7
20260501232204 54 195 10.0 19.0 0.01 1.54 1.50 1 1014.6
20260501232104 54 195 10.0 19.0 0.01 1.54 1.50 1 1014.6
20260501232004 54 195 10.0 19.0 0.02 1.54 1.50 1 1014.4
20260501231904 54 192 10.0 19.0 0.02 1.54 1.50 1 1014.5
20260501231804 55 191 9.0 19.0 0.02 1.54 1.50 1 1014.5
20260501231704 55 191 9.0 19.0 0.02 1.54 1.50 1 1014.5
20260501231604 55 190 9.0 22.0 0.02 1.54 1.50 1 1014.5
20260501231504 55 191 9.0 22.0 0.02 1.54 1.50 1 1014.6
20260501231404 55 189 9.0 22.0 0.02 1.54 1.50 1 1014.7
20260501231325 55 188 9.0 22.0 0.02 1.54 1.50 1 1014.8
20260501231204 55 188 9.0 22.0 0.02 1.54 1.50 1 1014.9
20260501231104 55 189 10.0 22.0 0.02 1.54 1.50 1 1014.9
20260501231004 55 188 9.0 22.0 0.02 1.54 1.50 1 1014.8
20260501230904 55 189 9.0 22.0 0.02 1.54 1.50 1 1014.7
20260501230804 55 190 10.0 22.0 0.03 1.54 1.50 1 1014.6
20260501230704 55 190 10.0 22.0 0.03 1.54 1.50 1 1014.5
20260501230604 55 190 10.0 19.0 0.03 1.54 1.50 1 1014.5
20260501230504 55 189 10.0 19.0 0.03 1.54 1.50 1 1014.4
20260501230404 55 191 10.0 19.0 0.03 1.54 1.50 1 1014.4
20260501230304 55 192 10.0 19.0 0.04 1.54 1.50 1 1014.4
20260501230204 55 191 10.0 19.0 0.04 1.54 1.50 1 1014.3
20260501230104 55 189 10.0 19.0 0.04 1.54 1.50 1 1014.3
20260501230004 55 189 10.0 19.0 0.05 1.54 1.50 1 1014.3
20260501225904 55 189 10.0 19.0 0.05 1.54 1.50 1 1014.3
20260501225804 55 189 10.0 19.0 0.05 1.54 1.50 1 1014.4
20260501225704 55 189 9.0 19.0 0.05 1.54 1.50 1 1014.4
20260501225604 55 188 9.0 19.0 0.06 1.54 1.50 1 1014.3
20260501225504 55 188 9.0 19.0 0.06 1.54 1.50 1 1014.4
20260501225404 55 185 9.0 19.0 0.06 1.54 1.50 1 1014.4
20260501225306 55 185 9.0 19.0 0.07 1.54 1.50 1 1014.5
20260501225204 55 186 9.0 19.0 0.07 1.54 1.50 1 1014.4
20260501225104 55 188 9.0 19.0 0.07 1.54 1.50 1 1014.4
20260501225004 55 189 10.0 19.0 0.07 1.54 1.50 1 1014.4
20260501224925 55 188 10.0 19.0 0.07 1.54 1.50 1 1014.5
20260501224804 55 190 10.0 21.0 0.08 1.54 1.50 1 1014.4
20260501224704 55 191 11.0 21.0 0.08 1.54 1.50 1 1014.4
20260501224605 55 191 11.0 21.0 0.08 1.54 1.50 1 1014.4
20260501224504 55 192 11.0 21.0 0.08 1.54 1.50 1 1014.3
20260501224404 55 194 11.0 21.0 0.08 1.54 1.50 1 1014.4
20260501224304 55 195 11.0 23.0 0.07 1.53 1.49 1 1014.4
20260501224204 55 196 11.0 23.0 0.07 1.53 1.49 1 1014.4
20260501224104 55 196 10.0 23.0 0.08 1.53 1.49 1 1014.3
20260501224025 55 196 10.0 23.0 0.08 1.53 1.49 1 1014.2
20260501223925 55 196 10.0 23.0 0.08 1.53 1.49 1 1014.2
20260501223804 55 196 9.0 23.0 0.08 1.53 1.49 1 1014.0
20260501223704 55 194 9.0 23.0 0.08 1.53 1.49 1 1014.0
20260501223604 55 195 9.0 23.0 0.09 1.53 1.49 1 1013.9
20260501223504 56 193 9.0 23.0 0.09 1.53 1.49 1 1013.9
20260501223425 56 192 9.0 23.0 0.09 1.53 1.49 1 1013.8
20260501223304 56 190 8.0 22.0 0.09 1.53 1.49 1 1013.6
20260501223204 56 188 8.0 17.0 0.09 1.53 1.49 1 1013.7
20260501223125 56 187 8.0 17.0 0.09 1.53 1.49 1 1013.8
20260501223004 56 188 8.0 17.0 0.09 1.53 1.49 1 1013.9
20260501222904 56 187 9.0 17.0 0.09 1.53 1.49 1 1014.0
20260501222804 56 187 9.0 17.0 0.09 1.53 1.49 1 1014.0
20260501222704 56 188 9.0 17.0 0.09 1.53 1.49 1 1014.1
20260501222604 56 190 9.0 17.0 0.09 1.53 1.49 1 1014.1
20260501222504 55 189 9.0 17.0 0.09 1.53 1.49 1 1014.1
20260501222404 55 187 9.0 17.0 0.09 1.53 1.49 1 1014.1
20260501222305 55 187 9.0 17.0 0.09 1.53 1.49 1 1014.2
20260501222204 55 188 8.0 17.0 0.09 1.53 1.49 1 1014.2
20260501222104 55 186 8.0 17.0 0.09 1.53 1.49 1 1014.2
20260501222004 55 184 8.0 17.0 0.08 1.52 1.48 1 1014.3
20260501221904 55 186 8.0 17.0 0.08 1.52 1.48 1 1014.4
20260501221804 55 186 8.0 17.0 0.08 1.52 1.48 1 1014.5
20260501221704 55 185 7.0 17.0 0.08 1.52 1.48 1 1014.5
20260501221604 55 181 8.0 16.0 0.08 1.52 1.48 1 1014.6